Weather in Makarichi

Russia / Bryansk Oblast     53°05′14″N   31°38′21″E
temp.,
°C
wind,
m/s
gust,
m/s
humid.,
%
clouds,
%
prec.,
mm/h
press.,
hPa
HPBL,
m
30 june, thu
thu3000:00+17sse009231 0.2 101811
03:00+16e23955 0.2 101838
06:00+17e35950 0.0 1018141
09:00+21ese34740 0.0 1018384
12:00+24e22600 0.0 10191144
15:00+26nne235232 0.0 10182023
18:00+25nne23598 0.0 10171158
21:00+19nne47770 0.0 1018117
1 july, fri
fri100:00+16ne34740 0.0 101956
03:00+14nne33780 0.0 102024
06:00+15nne33795 0.0 102062
09:00+21ne35635 0.0 1020319
12:00+24ne35505 0.0 10201273
15:00+26nne344733 0.0 10201801
18:00+25n345961 0.0 10191226
21:00+20nne3476100 0.0 102051
2 july, sat
sat200:00+16ese387992 0.0 1021134
03:00+14sse367989 0.0 1022115
06:00+14s358199 0.0 102396
09:00+19ssw3366100 0.0 1023354
12:00+23sw2260100 0.0 1023786
15:00+25w1254100 0.0 10221253
18:00+26nne115680 0.0 10211018
21:00+21ene2274100 0.0 102012
3 july, sun
sun300:00+18s11835 0.0 102111
03:00+17ssw22875 0.0 102011
06:00+18w228699 0.0 102026
09:00+23w22705 0.0 1019355
12:00+26nnw125879 0.3 10191191
15:00+28nne124911 0.3 10181900
18:00+28ese025027 0.0 10171558
21:00+23nne356899 0.1 101890
4 july, mon
mon400:00+21e227671 0.1 101726
03:00+18nw11879 0.3 101811
06:00+19wnw01843 0.1 101711
09:00+24n11682 0.1 1018342
12:00+27e11550 0.0 10171206
15:00+29ese11461 0.0 10171932
18:00+25nw576675 0.1 1017288
21:00+20ene1181100 0.7 101815